Powrót do katalogu

PSLV DEB

AktywnySSO
NORAD 27653·DEBRIS·🇮🇳 India

Wystrzelony Oct 22, 2001 z Satish Dhawan Space Centre

Loading…

Następne Przeloty (najbliższe 24 godziny)

TLE

ŚwieżeSource: Space-Track

Epoka: Sep 14, 2026, 10:27 UTC

1 27653U 01049NQ  26257.43553325  .00001440  00000-0  15129-3 0  9999
2 27653  98.0762 320.6381 0050386 195.3789 164.5900 14.90242524302591

Śledź PSLV DEB w czasie rzeczywistym z AllMySat

Download on the App Store